Regional Weather Roundup
Issued by NWS Sioux Falls, SD

Home | Current Version | Previous Version | Text Only | Print | Product List | Glossary On
Versions: 1 2 3 4 5 6 7 8 9 10 11 12 13 14 15 16 17 18 19 20 21 22 23 24 25 26 27 28 29 30 31 32 33 34 35 36 37 38 39 40 41 42 43 44 45 46 47 48 49 50
000
ASUS43 KFSD 250710
RWRFSD

WEATHER ROUNDUP FOR SE SOUTH DAKOTA/SW MINNESOTA/NW IOWA
NATIONAL WEATHER SERVICE SIOUX FALLS SD
200 AM CDT MON MAY 25 2015

NOTE: "FAIR" INDICATES FEW OR NO CLOUDS BELOW 12,000 FEET WITH NO
SIGNIFICANT WEATHER AND OR OBSTRUCTIONS TO VISIBILITY.


SDZ038>040-050-052>070-250800-
SOUTHEAST SOUTH DAKOTA

CITY           SKY/WX    TMP DP  RH WIND       PRES   REMARKS
BROOKINGS      CLOUDY    57  55  94 NW3       29.77S
CHAMBERLAIN    CLOUDY    57  57  99 CALM      29.79S
HURON          CLOUDY    57  57 100 N5        29.77S
MADISON        CLOUDY    55  55 100 N3        29.76F
MITCHELL       CLOUDY    59  58  96 CALM      29.77S
SIOUX FALLS    CLOUDY    59  58  96 NW3       29.74F
WINNER         FOG       59  57  93 CALM      29.79S VSB 1/4
YANKTON        MOCLDY    59  57  94 SW3       29.74F
$$

MNZ071-072-080-081-089-090-097-098-250800-
SOUTHWEST MINNESOTA

CITY           SKY/WX    TMP DP  RH WIND       PRES   REMARKS
FAIRMONT       CLOUDY    61  55  82 SW6       29.71F
JACKSON        FOG       59  59 100 CALM      29.72F VSB 1/4
LUVERNE        CLOUDY    59  57  94 W3        29.74F
MARSHALL       CLOUDY    57  54  88 N5        29.73F
MONTEVIDEO     DRIZZLE   57  57 100 NE6       29.74F
REDWOOD FALLS  LGT RAIN  58  57  97 CALM      29.70F FOG
TRACY          DRIZZLE   58  58  98 N3        29.73F
WINDOM         FOG       59  57  94 CALM      29.72F VSB<1/4
WORTHINGTON    CLOUDY    57  55  94 W3        29.73F VSB 1/2
$$

IAZ001>003-012>014-020>022-031-032-NEZ013-014-SDZ071-250800-
NORTHWEST IOWA

CITY           SKY/WX    TMP DP  RH WIND       PRES   REMARKS
CHEROKEE       CLOUDY    60  60 100 SW6       29.74F FOG
DENISON        CLOUDY    63  63 100 SW5       29.75S FOG
ESTHERVILLE    CLOUDY    60  59  96 SW9       29.71F
LE MARS        CLOUDY    61  61 100 SW5       29.75F
ORANGE CITY    CLOUDY    59  59 100 W6        29.74F FOG
SHELDON        FOG       59  57  94 W6        29.72F VSB 1
SIOUX CITY     MOCLDY    60  58  92 W5        29.75F
SPENCER        CLOUDY    61  60  97 SW10      29.73F
STORM LAKE     CLOUDY    61  61 100 W10       29.75F FOG
$$

ABBREVIATIONS USED IN REMARKS
   TC - TEMPERATURE IN CELSIUS
  WCI - WIND CHILL INDEX
   HX - HEAT INDEX
  VSB - VISIBILITY




USA.gov is the U.S. government's official web portal to all federal, state and local government web resources and services.